[[{"header":{"parameterUnit":"m.s-1","parameterCategory":2,"la1":30.2991,"la2":30.254,"lo1":-89.0895,"lo2":-89.0444,"dy":0.0017,"dx":0.0017,"nx":28,"ny":28,"refTime":"2024-08-29T03:00:00:Z","depth":"0","parameterNumber":2,"parameterNumberName":"U-component_of_CURRENTS"},"data":[0,0,0,0,0,0,0,0,0,0,0,0,0,0,0,0,0,0,0,0,0,0,0,0,0,0,0,0,0,0,0,0,0,0,0,0,0,0,0,0,0,0,0,0,0,0,0,0,0,0,0,0,0,0,0,0,0,0,0.3186,0.3187,0,0.3283,0.3284,0.3285,0.3319,0.3318,0.3318,0.3318,0.3348,0.3349,0.335,0,0,0,0,0,0,0,0,0,0,0,0,0,0.3052,0.3054,0.3186,0.3187,0.3188,0.3282,0.3284,0.3285,0.3319,0.3318,0.3318,0.3318,0.3348,0.3349,0.335,0,0,0,0,0,0,0,0,0,0,0,0,0,0.3124,0.3055,0.3185,0.3218,0.3222,0.3282,0.3284,0.3285,0.3319,0.3318,0.3318,0.3318,0.3347,0.3349,0.335,0.3365,0,0,0.3355,0.3355,0,0,0,0,0,0,0,0,0.312,0.3128,0.3212,0.3216,0.3221,0.329,0.3248,0.3309,0.3319,0.328,0.3318,0.3318,0.3324,0.3327,0.3344,0.3366,0.3368,0.3355,0.3356,0.3356,0.3357,0,0,0,0,0,0,0,0.3115,0.3125,0.3222,0.3213,0.3219,0.3236,0.3245,0.326,0.33,0.3283,0.3287,0.33,0.3325,0.3343,0.3345,0.3368,0.3355,0.3356,0.3357,0.3357,0.344,0.3441,0,0,0,0,0,0,0.3106,0.312,0.3219,0.3225,0.317,0.3238,0.3249,0.3266,0.3301,0.3307,0.3301,0.3302,0.334,0.3343,0.3346,0.3392,0.3356,0.3358,0.3358,0.3439,0.344,0.3442,0,0,0,0,0,0,0.3103,0.3114,0.3215,0.3176,0.319,0.3241,0.326,0.3268,0.3293,0.3315,0.3319,0.3318,0.334,0.3344,0.3368,0.3392,0.3358,0.336,0.3437,0.3439,0.3441,0.3466,0,0,0,0,0,0,0.3099,0.3112,0.312,0.3175,0.3192,0.3256,0.3261,0.3271,0.3303,0.3305,0.3331,0.3334,0.334,0.3366,0.337,0.3394,0.3361,0.3436,0.3438,0.3441,0.3464,0.3469,0.3473,0,0,0,0,0,0.3094,0.311,0.312,0.3132,0.3202,0.3257,0.3267,0.3301,0.3304,0.332,0.3337,0.3333,0.3385,0.3368,0.3372,0.3397,0.3434,0.3437,0.344,0.3462,0.3468,0.3473,0,0,0,0,0,0,0.3059,0.3117,0.3128,0.3162,0.3207,0.3264,0.3283,0.3305,0.3333,0.3331,0.3346,0.335,0.3385,0.3387,0.3368,0.343,0.3411,0.3415,0.3426,0.3432,0.3437,0.3434,0.3362,0,0,0,0,0,0.3054,0.3078,0.3136,0.3162,0.3184,0.3232,0.3258,0.3283,0.3318,0.3331,0.335,0.3371,0.3402,0.3411,0.3435,0.346,0.347,0.3481,0.3486,0.349,0.3492,0.3531,0.354,0.3452,0.3452,0.3452,0,0,0.3045,0.3082,0.3094,0.3156,0.319,0.3229,0.3247,0.3289,0.3317,0.3327,0.3362,0.3389,0.3414,0.3451,0.3466,0.3452,0.3521,0.3494,0.3497,0.3497,0.3535,0.3544,0.3551,0.3454,0.3453,0.3453,0,0,0.3045,0.3076,0.3095,0.3135,0.3192,0.3227,0.324,0.33,0.332,0.3357,0.3381,0.3421,0.3452,0.3487,0.3505,0.3549,0.3549,0.3557,0.3573,0.3611,0.3619,0.3625,0.3649,0.3658,0.3553,0.3554,0.3554,0,0.3031,0.3062,0.311,0.3145,0.3167,0.3226,0.3248,0.3292,0.3349,0.3371,0.3366,0.3451,0.3472,0.3534,0.3554,0.356,0.3574,0.3547,0.3617,0.3623,0.363,0.3653,0.3662,0.3555,0.3555,0.3555,0.3555,0,0.3049,0.3072,0.3089,0.3146,0.3183,0.3212,0.3275,0.3315,0.334,0.3384,0.3446,0.3484,0.3535,0.3555,0.3566,0.3632,0.3625,0.3621,0.3598,0.364,0.3662,0.3671,0.3557,0.3557,0.3556,0.3556,0,0,0.3012,0.3082,0.3084,0.3108,0.3177,0.3216,0.3263,0.3327,0.3378,0.3424,0.3479,0.3541,0.3574,0.3597,0.3628,0.3663,0.3723,0.3659,0.366,0.3676,0.38,0.3768,0.3775,0.3729,0.3731,0.3732,0.3797,0,0.3,0.3043,0.3079,0.3122,0.3151,0.3211,0.3258,0.333,0.3389,0.3466,0.3519,0.359,0.3587,0.3625,0.366,0.3729,0.3748,0.3705,0.3764,0.3765,0.3726,0.3785,0.3632,0.3675,0.3806,0.3807,0.3809,0,0.2992,0.3025,0.3048,0.3116,0.3134,0.3172,0.3261,0.3319,0.344,0.3486,0.3561,0.3616,0.3704,0.3681,0.3786,0.376,0.3773,0.3803,0.3806,0.3772,0.375,0.3656,0.3686,0.3591,0.3822,0.3821,0.382,0,0.2945,0.2999,0.3009,0.3034,0.3127,0.315,0.3207,0.3322,0.3394,0.3517,0.3591,0.3674,0.3762,0.3783,0.3855,0.3823,0.3958,0.392,0.3891,0.3889,0.3769,0.3753,0.3706,0.3956,0.3956,0.3956,0.3956,0,0.2918,0.2938,0.2993,0.3014,0.3059,0.3129,0.3206,0.3287,0.3413,0.3526,0.3608,0.3714,0.3796,0.3885,0.3884,0.3939,0.398,0.3908,0.3912,0.3773,0.3758,0.3677,0.3645,0.3958,0.3958,0.3957,0.3957,0,0.2892,0.2912,0.2951,0.3021,0.3044,0.3091,0.3213,0.3299,0.3411,0.3561,0.3606,0.3786,0.3911,0.3968,0.4052,0.4012,0.3926,0.4027,0.3859,0.384,0.369,0.3665,0.3517,0.3413,0.3992,0.3992,0.3992,0,0.2894,0.2907,0.2957,0.2997,0.3033,0.3106,0.3179,0.3288,0.3383,0.3608,0.3686,0.3862,0.3974,0.4093,0.4061,0.4047,0.3929,0.3885,0.3787,0.3675,0.3651,0.3512,0.3425,0.3637,0.3634,0.3631,0.3629,0,0.2935,0.2937,0.2978,0.3017,0.3078,0.3139,0.3237,0.329,0.3445,0.3557,0.3722,0.3823,0.3983,0.3938,0.3954,0.3918,0.3697,0.3832,0.3757,0.3408,0.3212,0.3116,0.3602,0.3607,0.3609,0.361,0.3612,0.3613,0.2984,0.3001,0.3027,0.3057,0.3116,0.3141,0.3147,0.3251,0.3335,0.3444,0.3639,0.3706,0.378,0.379,0.3744,0.3567,0.3556,0.3418,0.3412,0.3292,0.3137,0.3577,0.3563,0.3565,0.3566,0.3568,0.3569,0,0.3026,0.3029,0.3076,0.3076,0.3087,0.3115,0.3168,0.3136,0.3155,0.3294,0.3387,0.3425,0.3398,0.3411,0.3317,0.3164,0.2993,0.306,0.2818,0.2765,0.3193,0.3123,0.2962,0.2962,0.2962,0.2962,0.2962,0.2962,0.306,0.3069,0.3048,0.3022,0.3019,0.2955,0.2937,0.2898,0.2924,0.2908,0.2906,0.2999,0.3132,0.313,0.2977,0.2889,0.2652,0.2509,0.2521,0.2826,0.2857,0.2887,0.2812,0.2589,0.2589,0.1945,0.1941,0.1937]},{"header":{"parameterUnit":"m.s-1","parameterCategory":2,"la1":30.2991,"la2":30.254,"lo1":-89.0895,"lo2":-89.0444,"dy":0.0017,"dx":0.0017,"nx":28,"ny":28,"refTime":"2024-08-29T03:00:00:Z","depth":"0","parameterNumber":3,"parameterNumberName":"V-component_of_CURRENTS"},"data":[0,0,0,0,0,0,0,0,0,0,0,0,0,0,0,0,0,0,0,0,0,0,0,0,0,0,0,0,0,0,0,0,0,0,0,0,0,0,0,0,0,0,0,0,0,0,0,0,0,0,0,0,0,0,0,0,0,0,0.0313,0.0313,0,0.0266,0.0265,0.0265,0.022,0.022,0.022,0.0219,0.0143,0.0141,0.0139,0,0,0,0,0,0,0,0,0,0,0,0,0,0.0313,0.0313,0.0313,0.0313,0.0313,0.0266,0.0265,0.0264,0.0221,0.022,0.022,0.0219,0.0143,0.0141,0.0139,0,0,0,0,0,0,0,0,0,0,0,0,0,0.0293,0.0313,0.0314,0.0286,0.0283,0.0266,0.0265,0.0264,0.0221,0.022,0.0219,0.0219,0.0144,0.0141,0.0139,0.0136,0,0,0.0131,0.013,0,0,0,0,0,0,0,0,0.0294,0.0293,0.0291,0.0288,0.0285,0.025,0.0237,0.022,0.0221,0.0243,0.0219,0.0219,0.0177,0.0172,0.0163,0.0132,0.0129,0.0131,0.013,0.0129,0.0128,0,0,0,0,0,0,0,0.0296,0.0294,0.0293,0.029,0.0287,0.0258,0.0255,0.0233,0.0212,0.0241,0.0238,0.0235,0.0175,0.0165,0.0161,0.0128,0.0131,0.0129,0.0128,0.0127,0.0098,0.0099,0,0,0,0,0,0,0.0308,0.0296,0.0295,0.0292,0.029,0.0259,0.0255,0.026,0.0213,0.0206,0.0236,0.0233,0.017,0.0164,0.0158,0.0172,0.0129,0.0126,0.0125,0.0097,0.0098,0.0099,0,0,0,0,0,0,0.0308,0.0309,0.0297,0.0293,0.029,0.026,0.0266,0.026,0.0254,0.021,0.0202,0.0237,0.0169,0.0161,0.0145,0.0168,0.0125,0.0123,0.0097,0.0098,0.0099,0.0188,0,0,0,0,0,0,0.0309,0.0309,0.0317,0.0295,0.0291,0.03,0.0266,0.0259,0.0254,0.025,0.0208,0.02,0.0168,0.0149,0.0143,0.0164,0.0121,0.0096,0.0097,0.0098,0.0184,0.0192,0.0199,0,0,0,0,0,0.0309,0.0329,0.0318,0.0317,0.0303,0.0301,0.0297,0.0271,0.0255,0.0261,0.0229,0.0201,0.0153,0.0148,0.014,0.0161,0.0095,0.0097,0.0098,0.0181,0.0191,0.0199,0,0,0,0,0,0,0.0334,0.0326,0.0313,0.0329,0.032,0.0294,0.0297,0.028,0.026,0.0253,0.0209,0.02,0.0191,0.0164,0.016,0.0156,0.012,0.0121,0.0186,0.0195,0.0202,0.0223,0.0119,0,0,0,0,0,0.0343,0.0356,0.034,0.0353,0.035,0.0324,0.0319,0.0304,0.0284,0.0274,0.0245,0.0214,0.0192,0.0185,0.0156,0.0159,0.0124,0.0167,0.0175,0.0181,0.0193,0.016,0.0165,0.0105,0.0105,0.0104,0,0,0.0354,0.0354,0.0358,0.0359,0.0346,0.0359,0.032,0.0321,0.0332,0.0269,0.0272,0.0235,0.0196,0.0194,0.0189,0.0177,0.0179,0.0183,0.0189,0.0197,0.0162,0.0168,0.0173,0.0106,0.0105,0.0105,0,0,0.039,0.0384,0.0406,0.0405,0.0398,0.0386,0.0392,0.0372,0.0363,0.036,0.0317,0.0299,0.0266,0.0248,0.0233,0.0266,0.0213,0.0255,0.0318,0.0286,0.0291,0.0294,0.0255,0.0255,0.0266,0.0266,0.0266,0,0.0402,0.0429,0.0411,0.0435,0.044,0.0406,0.0432,0.0423,0.0401,0.0402,0.0372,0.0331,0.0295,0.0301,0.031,0.0285,0.0251,0.0289,0.0296,0.0299,0.0302,0.026,0.0259,0.0271,0.027,0.027,0.0269,0,0.0453,0.0474,0.0489,0.0508,0.0513,0.0529,0.0517,0.052,0.05,0.0488,0.0481,0.0428,0.0407,0.0393,0.0361,0.0369,0.0332,0.0304,0.0277,0.0314,0.0267,0.0264,0.0277,0.0275,0.0274,0.0273,0,0,0.0485,0.0517,0.0524,0.0548,0.0553,0.0569,0.0589,0.0601,0.0632,0.059,0.0618,0.0568,0.0533,0.0514,0.0469,0.0446,0.0428,0.039,0.0386,0.0358,0.0349,0.0337,0.0332,0.0397,0.0397,0.0397,0.0308,0,0.0529,0.0592,0.0593,0.0652,0.0681,0.0665,0.0699,0.0705,0.0699,0.0719,0.066,0.0662,0.0582,0.0577,0.0539,0.0465,0.0424,0.0455,0.0313,0.0309,0.0299,0.033,0.0349,0.0273,0.0305,0.0304,0.0304,0,0.0578,0.0618,0.0685,0.0737,0.0749,0.0785,0.0834,0.0858,0.0869,0.0864,0.0841,0.0789,0.0753,0.0676,0.0556,0.0576,0.0468,0.0397,0.0391,0.035,0.0292,0.0241,0.0265,0.0109,0.0298,0.0299,0.0299,0,0.0621,0.0681,0.0741,0.0758,0.0813,0.0848,0.0878,0.0908,0.0958,0.0961,0.1,0.0913,0.0904,0.0755,0.06,0.0574,0.0465,0.0406,0.0286,0.0282,0.0257,0.0252,0.0121,0.0305,0.0305,0.0305,0.0306,0,0.0672,0.0722,0.0773,0.0814,0.0908,0.0914,0.1017,0.1035,0.1088,0.1184,0.1084,0.1145,0.0925,0.0835,0.0649,0.0476,0.0493,0.0306,0.0267,0.0288,0.0287,0.0116,0.0021,0.0302,0.0303,0.0303,0.0304,0,0.072,0.0745,0.0829,0.0903,0.0937,0.1009,0.1124,0.1209,0.1237,0.1358,0.1366,0.1325,0.1208,0.0973,0.0752,0.0573,0.0293,0.0307,0.0346,0.0313,0.0045,-0.0044,-0.0221,-0.0285,0.0154,0.0153,0.0153,0,0.0755,0.0805,0.0909,0.0982,0.1028,0.1135,0.1232,0.1286,0.1386,0.1495,0.1573,0.1494,0.1483,0.1149,0.0794,0.0453,0.0281,0.0249,0.0198,0.0046,-0.0084,-0.0148,-0.0193,0.0188,0.0187,0.0187,0.0187,0,0.0842,0.0877,0.0953,0.1092,0.1206,0.1331,0.1464,0.1559,0.1652,0.1761,0.1891,0.1888,0.1584,0.1258,0.0784,0.0556,0.0152,0.0235,0.0068,-0.0068,-0.0136,-0.022,0.022,0.0185,0.0186,0.0186,0.0186,0.0186,0.0919,0.0986,0.1087,0.1215,0.1348,0.1503,0.1612,0.1766,0.1933,0.2094,0.2107,0.2129,0.1671,0.1036,0.0716,0.0134,0.0117,-0.0051,-0.0148,-0.02,-0.0253,0.0188,0.0118,0.0118,0.0118,0.0118,0.0117,0,0.1,0.1075,0.1208,0.1356,0.1498,0.1552,0.1755,0.1869,0.2071,0.2229,0.233,0.21,0.1554,0.0985,0.0196,-0.0185,-0.0308,-0.0388,-0.0482,-0.0512,-0.013,-0.0117,-0.0227,-0.0227,-0.0226,-0.0226,-0.0226,-0.0226,0.1054,0.117,0.1223,0.1446,0.1559,0.1738,0.1846,0.2026,0.2158,0.2326,0.2328,0.2303,0.1853,0.053,-0.0354,-0.0544,-0.078,-0.0847,-0.0972,-0.0724,-0.07,-0.0677,-0.0687,-0.0915,-0.0916,-0.129,-0.1294,-0.1297]}],[{"header":{"parameterUnit":"m.s-1","parameterCategory":2,"la1":30.2991,"la2":30.254,"lo1":-89.0895,"lo2":-89.0444,"dy":0.0017,"dx":0.0017,"nx":28,"ny":28,"refTime":"2024-08-29T03:00:00:Z","depth":"2","parameterNumber":2,"parameterNumberName":"U-component_of_CURRENTS"},"data":[0,0,0,0,0,0,0,0,0,0,0,0,0,0,0,0,0,0,0,0,0,0,0,0,0,0,0,0,0,0,0,0,0,0,0,0,0,0,0,0,0,0,0,0,0,0,0,0,0,0,0,0,0,0,0,0,0,0,0.2692,0.2693,0,0.2755,0.2755,0.2756,0.2798,0.2798,0.2799,0.2799,0.2825,0.2826,0.2826,0,0,0,0,0,0,0,0,0,0,0,0,0,0.2633,0.2634,0.2692,0.2693,0.2694,0.2754,0.2755,0.2756,0.2798,0.2798,0.2799,0.2799,0.2825,0.2826,0.2826,0,0,0,0,0,0,0,0,0,0,0,0,0,0.2674,0.2634,0.2692,0.2722,0.2725,0.2754,0.2755,0.2756,0.2798,0.2798,0.2799,0.2799,0.2825,0.2826,0.2827,0.2823,0,0,0.2829,0.2829,0,0,0,0,0,0,0,0,0.2671,0.2676,0.2716,0.272,0.2723,0.2769,0.2744,0.2777,0.2798,0.2771,0.2799,0.2799,0.2803,0.2805,0.2817,0.2824,0.2825,0.2829,0.2829,0.2829,0.283,0,0,0,0,0,0,0,0.2668,0.2673,0.2717,0.2717,0.2721,0.274,0.2746,0.2751,0.2783,0.2773,0.2776,0.2782,0.2804,0.2816,0.2818,0.2826,0.2829,0.2829,0.283,0.283,0.2914,0.2915,0,0,0,0,0,0,0.2658,0.2671,0.2715,0.2719,0.2697,0.2741,0.2747,0.2754,0.2784,0.2789,0.2782,0.2784,0.2815,0.2817,0.2819,0.2869,0.2829,0.283,0.283,0.2912,0.2914,0.2916,0,0,0,0,0,0,0.2657,0.2662,0.2713,0.2696,0.2704,0.2741,0.2748,0.2755,0.2776,0.2791,0.2796,0.2797,0.2815,0.2818,0.2839,0.2869,0.283,0.2831,0.291,0.2912,0.2915,0.2936,0,0,0,0,0,0,0.2655,0.2661,0.2669,0.2695,0.2704,0.2735,0.2748,0.2756,0.2778,0.2782,0.2805,0.2808,0.2816,0.2838,0.284,0.2869,0.2832,0.2907,0.2911,0.2914,0.2933,0.2939,0.2944,0,0,0,0,0,0.2653,0.2663,0.2669,0.2675,0.2712,0.2735,0.2742,0.2769,0.2779,0.2789,0.2811,0.2808,0.2862,0.2839,0.2841,0.2871,0.2906,0.291,0.2914,0.2931,0.2938,0.2944,0,0,0,0,0,0,0.2643,0.2669,0.2676,0.2694,0.2713,0.2742,0.2761,0.2772,0.2797,0.2809,0.2816,0.282,0.2855,0.286,0.2835,0.291,0.2889,0.2893,0.2901,0.2908,0.2914,0.2914,0.2832,0,0,0,0,0,0.2643,0.2655,0.268,0.2693,0.2707,0.2732,0.2748,0.2767,0.279,0.2803,0.2823,0.285,0.2872,0.2886,0.2907,0.2934,0.2946,0.2962,0.2967,0.2972,0.2976,0.3021,0.303,0.2929,0.2929,0.2929,0,0,0.2641,0.2657,0.2664,0.2691,0.2713,0.2737,0.2744,0.2774,0.2796,0.28,0.2844,0.2865,0.2884,0.2924,0.2941,0.2931,0.3009,0.2977,0.298,0.2982,0.3026,0.3036,0.3044,0.2932,0.2931,0.2931,0,0,0.2643,0.2661,0.2674,0.2695,0.2729,0.2748,0.2756,0.2796,0.2817,0.285,0.2871,0.2911,0.2938,0.2971,0.2985,0.3033,0.3035,0.3045,0.3072,0.3116,0.3124,0.3131,0.316,0.317,0.305,0.305,0.305,0,0.2641,0.2657,0.2681,0.2703,0.2719,0.2752,0.277,0.28,0.2843,0.2867,0.2869,0.2949,0.2965,0.3017,0.3042,0.3046,0.3062,0.3039,0.3121,0.3129,0.3136,0.3164,0.3175,0.3051,0.3051,0.3051,0.3051,0,0.2654,0.267,0.2683,0.2718,0.2741,0.2762,0.2803,0.2844,0.2872,0.2903,0.2964,0.2997,0.3047,0.3064,0.3063,0.3132,0.3124,0.3118,0.3097,0.3147,0.3174,0.3185,0.3054,0.3053,0.3053,0.3052,0,0,0.2628,0.268,0.268,0.27,0.2748,0.277,0.2819,0.2867,0.2914,0.2962,0.3016,0.3068,0.3099,0.3118,0.3138,0.3176,0.3241,0.3169,0.3171,0.3186,0.333,0.3277,0.3283,0.3245,0.3248,0.3249,0.3327,0,0.2624,0.2656,0.2683,0.2717,0.274,0.279,0.2831,0.2889,0.2941,0.3012,0.306,0.3119,0.3114,0.3152,0.3189,0.324,0.327,0.322,0.329,0.3292,0.3229,0.3294,0.3025,0.3068,0.3337,0.3339,0.334,0,0.2618,0.2642,0.2667,0.2724,0.274,0.2771,0.2854,0.2903,0.3006,0.3049,0.3122,0.3163,0.3246,0.3224,0.3325,0.3293,0.3311,0.3334,0.3338,0.3288,0.3259,0.3064,0.3077,0.3358,0.3356,0.3355,0.3354,0,0.258,0.2627,0.2642,0.2661,0.2736,0.2768,0.282,0.2918,0.2977,0.3089,0.3153,0.3232,0.3306,0.3341,0.3399,0.3369,0.3496,0.3461,0.3424,0.342,0.3204,0.3178,0.3513,0.3513,0.3513,0.3512,0.3512,0,0.2556,0.2574,0.2631,0.2647,0.269,0.2755,0.2823,0.2899,0.3012,0.3099,0.3178,0.3258,0.3341,0.3421,0.3431,0.3476,0.3528,0.3443,0.3445,0.3205,0.318,0.3438,0.3428,0.3515,0.3515,0.3514,0.3514,0,0.2513,0.2547,0.2579,0.2649,0.2675,0.2715,0.2825,0.2889,0.3004,0.3127,0.317,0.3313,0.3422,0.3485,0.357,0.3536,0.3567,0.3558,0.327,0.3236,0.3447,0.3438,0.3523,0.3522,0.3521,0.352,0.3519,0,0.2493,0.2501,0.2567,0.2596,0.2629,0.2697,0.2753,0.2872,0.2937,0.3153,0.3203,0.3364,0.3431,0.3541,0.3522,0.3533,0.3586,0.3276,0.3167,0.3459,0.3453,0.3445,0.3437,0.2889,0.2883,0.2878,0.2874,0,0.2468,0.2488,0.2528,0.2564,0.2616,0.2665,0.2748,0.2785,0.2945,0.3036,0.3162,0.3239,0.3379,0.3274,0.3317,0.3279,0.3252,0.3183,0.3575,0.2935,0.287,0.2861,0.2872,0.2833,0.2837,0.284,0.2842,0.2844,0.2458,0.2468,0.251,0.2533,0.2592,0.261,0.2602,0.2688,0.2752,0.2846,0.3003,0.3031,0.3081,0.3009,0.2921,0.2863,0.3078,0.2914,0.2925,0.2942,0.2861,0.2799,0.2733,0.2736,0.2739,0.2742,0.2744,0,0.2431,0.2447,0.2475,0.2487,0.2478,0.2545,0.258,0.253,0.253,0.2659,0.2715,0.2534,0.2484,0.2543,0.2391,0.2387,0.2323,0.2283,0.2167,0.2212,0.2252,0.2131,0.1812,0.1809,0.1806,0.1803,0,0,0.2427,0.2425,0.2413,0.2363,0.2366,0.2323,0.2307,0.2254,0.2278,0.2228,0.2227,0.2406,0.2499,0.2136,0.208,0.1921,0.2047,0.1847,0.2604,0.2515,0.2551,0.2636,0.2506,0,0,0,0,0]},{"header":{"parameterUnit":"m.s-1","parameterCategory":2,"la1":30.2991,"la2":30.254,"lo1":-89.0895,"lo2":-89.0444,"dy":0.0017,"dx":0.0017,"nx":28,"ny":28,"refTime":"2024-08-29T03:00:00:Z","depth":"2","parameterNumber":3,"parameterNumberName":"V-component_of_CURRENTS"},"data":[0,0,0,0,0,0,0,0,0,0,0,0,0,0,0,0,0,0,0,0,0,0,0,0,0,0,0,0,0,0,0,0,0,0,0,0,0,0,0,0,0,0,0,0,0,0,0,0,0,0,0,0,0,0,0,0,0,0,0.0148,0.0147,0,0.0096,0.0095,0.0094,0.0056,0.0055,0.0055,0.0055,-0.0021,-0.0022,-0.0024,0,0,0,0,0,0,0,0,0,0,0,0,0,0.0166,0.0166,0.0148,0.0147,0.0147,0.0096,0.0095,0.0094,0.0056,0.0055,0.0055,0.0055,-0.002,-0.0022,-0.0024,0,0,0,0,0,0,0,0,0,0,0,0,0,0.014,0.0166,0.0148,0.0122,0.0119,0.0096,0.0095,0.0094,0.0056,0.0055,0.0055,0.0055,-0.0019,-0.0022,-0.0025,-0.0033,0,0,-0.0033,-0.0034,0,0,0,0,0,0,0,0,0.0142,0.0139,0.0126,0.0124,0.0121,0.0082,0.0074,0.0051,0.0056,0.0079,0.0055,0.0054,0.0012,0.0007,-0.0002,-0.0036,-0.0039,-0.0033,-0.0035,-0.0036,-0.0036,0,0,0,0,0,0,0,0.0144,0.0141,0.0127,0.0126,0.0122,0.0096,0.0093,0.0069,0.0048,0.0077,0.0074,0.007,0.001,0.0,-0.0005,-0.0041,-0.0033,-0.0035,-0.0037,-0.0038,-0.0078,-0.0077,0,0,0,0,0,0,0.0155,0.0143,0.0128,0.0125,0.0131,0.0097,0.0092,0.0095,0.0048,0.0041,0.007,0.0068,0.0005,-0.0001,-0.0007,-0.0001,-0.0036,-0.0038,-0.004,-0.0078,-0.0078,-0.0077,0,0,0,0,0,0,0.0155,0.0154,0.013,0.0133,0.0128,0.0097,0.01,0.0094,0.0087,0.0044,0.0036,0.007,0.0004,-0.0004,-0.0019,-0.0005,-0.0039,-0.0042,-0.0079,-0.0078,-0.0077,0.0,0,0,0,0,0,0,0.0156,0.0155,0.0161,0.0134,0.0129,0.0127,0.01,0.0093,0.0085,0.0082,0.0041,0.0033,0.0003,-0.0015,-0.0022,-0.0009,-0.0044,-0.008,-0.0079,-0.0078,-0.0003,0.0004,0.0009,0,0,0,0,0,0.0157,0.0172,0.0162,0.016,0.0138,0.0128,0.0123,0.0098,0.0086,0.009,0.0062,0.0035,-0.0014,-0.0016,-0.0025,-0.0012,-0.008,-0.0079,-0.0078,-0.0006,0.0002,0.0009,0,0,0,0,0,0,0.0183,0.0169,0.0157,0.0167,0.0152,0.0122,0.0123,0.0106,0.0087,0.0085,0.0042,0.0033,0.0022,-0.0005,-0.0007,-0.0022,-0.0052,-0.0052,0.0006,0.0013,0.0019,0.0041,-0.0046,0,0,0,0,0,0.0193,0.02,0.0179,0.0186,0.0182,0.0154,0.0146,0.0132,0.0111,0.0102,0.0073,0.0043,0.002,0.001,-0.0017,-0.0022,-0.0052,-0.002,-0.0014,-0.0009,0.0003,-0.003,-0.0026,-0.0073,-0.0073,-0.0073,0,0,0.0203,0.0197,0.02,0.0192,0.0178,0.0185,0.0149,0.0146,0.0152,0.0097,0.0097,0.0062,0.0022,0.0015,0.0009,-0.0004,-0.0012,-0.0007,-0.0002,0.0007,-0.0029,-0.0024,-0.002,-0.0073,-0.0073,-0.0073,0,0,0.0233,0.0225,0.0242,0.0237,0.0226,0.0211,0.0215,0.0192,0.0181,0.0175,0.0137,0.0117,0.0081,0.006,0.0043,0.0067,0.0018,0.0054,0.0107,0.0074,0.0078,0.0081,0.0047,0.0046,0.0061,0.0061,0.0061,0,0.0244,0.0265,0.0244,0.0261,0.0264,0.0229,0.025,0.0237,0.0212,0.0211,0.0187,0.014,0.0105,0.01,0.0107,0.0083,0.0053,0.0084,0.0083,0.0086,0.0087,0.0051,0.005,0.0065,0.0065,0.0064,0.0064,0,0.0287,0.0304,0.0315,0.0327,0.0327,0.0339,0.0322,0.0322,0.0303,0.0286,0.0273,0.0223,0.0198,0.018,0.0151,0.0149,0.012,0.0092,0.0068,0.0097,0.0057,0.0054,0.0071,0.0069,0.0068,0.0067,0,0,0.0314,0.034,0.0346,0.0365,0.0365,0.0373,0.0387,0.0391,0.0412,0.0371,0.0386,0.0337,0.0306,0.0286,0.0241,0.0213,0.0195,0.0166,0.0162,0.0139,0.012,0.0098,0.0091,0.0165,0.0165,0.0165,0.0087,0,0.0354,0.0406,0.0405,0.0453,0.0476,0.046,0.0483,0.0482,0.0469,0.0475,0.0418,0.0411,0.0347,0.0339,0.0301,0.0227,0.019,0.0219,0.009,0.0087,0.0068,0.0088,0.0114,0.0048,0.0084,0.0083,0.0083,0,0.0395,0.0428,0.0485,0.0527,0.0537,0.0563,0.0597,0.0612,0.0607,0.0598,0.0572,0.0522,0.0482,0.0419,0.0306,0.0326,0.0233,0.0165,0.0159,0.0111,0.0058,0.0023,0.004,0.0077,0.0077,0.0078,0.0078,0,0.0431,0.0481,0.0533,0.0547,0.0589,0.0618,0.064,0.0654,0.0687,0.0677,0.0698,0.0622,0.0602,0.0478,0.0336,0.0319,0.0205,0.0161,0.0048,0.0045,0.003,0.0026,0.0073,0.0073,0.0074,0.0074,0.0074,0,0.0473,0.0514,0.056,0.0593,0.0667,0.0673,0.0749,0.0759,0.0793,0.0855,0.0768,0.0789,0.0616,0.0526,0.0374,0.0213,0.023,0.0065,0.0028,0.0057,0.0056,0.0051,0.0049,0.0071,0.0072,0.0072,0.0073,0,0.0501,0.0531,0.0597,0.0661,0.0689,0.0742,0.083,0.0888,0.0907,0.0983,0.0986,0.092,0.0805,0.062,0.0426,0.0279,0.0114,0.0045,0.0091,0.0061,-0.0039,-0.0036,-0.0088,-0.009,-0.0091,-0.0092,-0.0092,0,0.0517,0.0555,0.0649,0.0704,0.074,0.0822,0.0894,0.0943,0.1012,0.1071,0.1115,0.1028,0.098,0.0683,0.0414,0.0147,0.0108,-0.0015,-0.0047,-0.0022,-0.0054,-0.0049,-0.0044,-0.0042,-0.0042,-0.0043,-0.0043,0,0.055,0.0586,0.065,0.0762,0.0851,0.0949,0.1051,0.1123,0.1199,0.1262,0.1314,0.1277,0.1011,0.0743,0.0381,0.0199,0.0029,-0.003,-0.001,-0.0001,0.0016,-0.0013,-0.0009,-0.0045,-0.0045,-0.0045,-0.0045,-0.0044,0.0577,0.0626,0.0719,0.0827,0.0934,0.1064,0.1154,0.1268,0.1389,0.1488,0.1447,0.1407,0.1106,0.0643,0.0325,0.0002,0.0015,-0.0109,-0.0106,-0.0104,-0.008,-0.0066,-0.0138,-0.0138,-0.0139,-0.0139,-0.0139,0,0.0609,0.0676,0.0775,0.091,0.1026,0.1086,0.1254,0.1344,0.1494,0.1577,0.1607,0.1321,0.1023,0.0686,0.0207,-0.0091,-0.0108,-0.0186,-0.0143,-0.0138,-0.0134,-0.0111,-0.0178,-0.0179,-0.018,-0.0181,0,0,0.0632,0.0727,0.0781,0.0966,0.1065,0.1232,0.1335,0.1469,0.1563,0.1628,0.1617,0.1546,0.114,0.0781,0.0378,0.0103,0.0051,0.0048,0.0113,0.0216,0.0224,-0.0056,-0.0011,0,0,0,0,0]}],[{"header":{"parameterUnit":"m.s-1","parameterCategory":2,"la1":30.2991,"la2":30.254,"lo1":-89.0895,"lo2":-89.0444,"dy":0.0017,"dx":0.0017,"nx":28,"ny":28,"refTime":"2024-08-29T03:00:00:Z","depth":"4","parameterNumber":2,"parameterNumberName":"U-component_of_CURRENTS"},"data":[0,0,0,0,0,0,0,0,0,0,0,0,0,0,0,0,0,0,0,0,0,0,0,0,0,0,0,0,0,0,0,0,0,0,0,0,0,0,0,0,0,0,0,0,0,0,0,0,0,0,0,0,0,0,0,0,0,0,0.1664,0.1665,0,0.1702,0.1702,0.1703,0.1749,0.175,0.1751,0.1751,0.182,0.1821,0.1822,0,0,0,0,0,0,0,0,0,0,0,0,0,0.1619,0.1619,0.1664,0.1665,0.1665,0.1702,0.1702,0.1703,0.1749,0.175,0.1751,0.1752,0.182,0.1821,0.1822,0,0,0,0,0,0,0,0,0,0,0,0,0,0.1644,0.1619,0.1664,0.1694,0.1697,0.1702,0.1702,0.1703,0.1748,0.175,0.1751,0.1752,0.1819,0.1821,0.1822,0.1806,0,0,0.1827,0.1828,0,0,0,0,0,0,0,0,0.1643,0.1646,0.1689,0.1692,0.1695,0.1723,0.1711,0.1739,0.1748,0.1727,0.1751,0.1753,0.1791,0.1794,0.1796,0.1809,0.1812,0.1827,0.1828,0.1829,0.1829,0,0,0,0,0,0,0,0.1641,0.1644,0.1678,0.1689,0.1693,0.1701,0.1706,0.1717,0.1751,0.1729,0.1733,0.1739,0.1793,0.1794,0.1798,0.1813,0.1827,0.1828,0.1829,0.183,0.1932,0.1933,0,0,0,0,0,0,0.1639,0.1643,0.1676,0.1679,0.1673,0.1701,0.1706,0.1712,0.175,0.1757,0.1738,0.1741,0.1791,0.1796,0.1801,0.1885,0.1829,0.183,0.1831,0.193,0.1932,0.1934,0,0,0,0,0,0,0.1637,0.1641,0.1675,0.1663,0.1668,0.1701,0.1706,0.1712,0.1753,0.1757,0.1764,0.1778,0.1792,0.1799,0.1849,0.1884,0.1831,0.1832,0.1928,0.193,0.1933,0.1988,0,0,0,0,0,0,0.1636,0.164,0.1661,0.1663,0.1669,0.1704,0.1705,0.1712,0.1753,0.1759,0.1793,0.1798,0.1794,0.1847,0.185,0.1885,0.1833,0.1925,0.1929,0.1932,0.1984,0.1992,0.2,0,0,0,0,0,0.1634,0.1649,0.1662,0.1667,0.169,0.1705,0.1709,0.1735,0.1755,0.1777,0.1806,0.1799,0.1871,0.1849,0.1853,0.189,0.1924,0.1928,0.1932,0.1981,0.1991,0.1999,0,0,0,0,0,0,0.1641,0.1655,0.1669,0.169,0.171,0.1714,0.174,0.1756,0.1795,0.1814,0.1819,0.1826,0.1885,0.188,0.1857,0.193,0.1897,0.1902,0.1933,0.1943,0.195,0.1954,0.1834,0,0,0,0,0,0.1651,0.1671,0.1682,0.1705,0.1718,0.1737,0.1755,0.1773,0.1797,0.1817,0.184,0.1868,0.1896,0.1916,0.1936,0.1972,0.1982,0.2,0.2008,0.2015,0.2022,0.2075,0.2088,0.1947,0.1947,0.1947,0,0,0.166,0.1673,0.1685,0.171,0.1729,0.175,0.1752,0.1789,0.1818,0.1818,0.1877,0.19,0.1914,0.1959,0.1984,0.1965,0.206,0.202,0.2025,0.2029,0.208,0.2094,0.2106,0.195,0.1949,0.1949,0,0,0.1675,0.1702,0.172,0.1739,0.1775,0.1786,0.1806,0.1834,0.1863,0.1911,0.1925,0.1972,0.2009,0.2026,0.2037,0.21,0.2102,0.2114,0.2154,0.2205,0.2217,0.2227,0.2256,0.2268,0.2114,0.2115,0.2115,0,0.169,0.171,0.173,0.1751,0.1772,0.1807,0.183,0.1861,0.1905,0.1937,0.1944,0.2026,0.2037,0.2092,0.2116,0.2117,0.2144,0.2114,0.2215,0.2225,0.2235,0.2262,0.2275,0.2118,0.2117,0.2117,0.2117,0,0.1704,0.1736,0.1751,0.1788,0.1814,0.1845,0.1879,0.1926,0.1969,0.1998,0.2078,0.2099,0.215,0.2161,0.2158,0.2237,0.2232,0.2221,0.2189,0.2253,0.2276,0.2289,0.2122,0.2121,0.212,0.2119,0,0,0.1689,0.175,0.1757,0.1786,0.1839,0.1858,0.1917,0.1974,0.2028,0.2084,0.215,0.2201,0.2234,0.225,0.2261,0.2299,0.2385,0.2297,0.2298,0.232,0.2499,0.2332,0.233,0.2402,0.2405,0.2407,0.2487,0,0.1698,0.1742,0.1769,0.1824,0.1848,0.1901,0.195,0.2013,0.2073,0.2149,0.2198,0.2268,0.2262,0.2302,0.2344,0.2381,0.2423,0.2364,0.2438,0.244,0.2279,0.234,0.2415,0.2496,0.2499,0.2501,0.2502,0,0.169,0.1725,0.1774,0.1847,0.1865,0.1909,0.2002,0.2055,0.2162,0.2212,0.2295,0.2339,0.2422,0.2401,0.2504,0.2475,0.25,0.2513,0.2517,0.2349,0.2296,0.242,0.2525,0.2523,0.2522,0.252,0.2519,0,0.1652,0.1724,0.1768,0.1791,0.1878,0.1925,0.1986,0.2085,0.2139,0.2271,0.2325,0.2427,0.249,0.2547,0.2587,0.2566,0.2683,0.2652,0.2522,0.251,0.2612,0.2599,0.2725,0.2725,0.2725,0.2725,0.2725,0,0.1624,0.1663,0.1765,0.1787,0.1852,0.1926,0.2009,0.2084,0.2196,0.226,0.237,0.2424,0.2536,0.2606,0.2628,0.2613,0.2725,0.2537,0.2523,0.2632,0.2622,0.262,0.2607,0.2728,0.2727,0.2727,0.2726,0,0.1557,0.1627,0.1682,0.1791,0.1832,0.1883,0.2005,0.2057,0.2186,0.2273,0.232,0.2457,0.2544,0.2623,0.2715,0.2644,0.2656,0.2623,0.2741,0.2731,0.2437,0.2426,0.2476,0.247,0.2466,0.2462,0.2459,0,0.1518,0.1545,0.1667,0.17,0.1754,0.1845,0.1896,0.2035,0.2083,0.2263,0.2285,0.2427,0.2499,0.2499,0.2595,0.2625,0.2595,0.2576,0.2491,0.2432,0.2415,0.241,0.2405,0.2452,0.2451,0.245,0.2449,0,0.1443,0.1505,0.1551,0.162,0.1683,0.1739,0.1831,0.1849,0.2003,0.214,0.2197,0.2246,0.2336,0.2398,0.2442,0.2458,0.2571,0.253,0.2538,0.2458,0.2404,0.239,0.2391,0.2434,0.2436,0.2437,0.2438,0,0.1391,0.1394,0.1465,0.1513,0.1586,0.1604,0.167,0.1728,0.1798,0.1991,0.201,0.2167,0.2311,0.2313,0.2357,0.2357,0.2312,0.2221,0.2244,0.2262,0.2153,0.2051,0.1968,0,0,0,0,0,0.1327,0.1314,0.1348,0.1383,0.1452,0.1497,0.1605,0.1674,0.1821,0.1808,0.1902,0.1977,0.204,0.2128,0.2086,0.2257,0.2318,0.2195,0.2224,0.235,0.2368,0.2258,0,0,0,0,0,0,0.1273,0.1303,0.1303,0.1275,0.1274,0.133,0.1394,0.1498,0.15,0.1665,0.1718,0.1846,0.1947,0.2045,0.2045,0.2069,0.2043,0.2298,0.2293,0.234,0.2356,0.237,0.2263,0,0,0,0,0]},{"header":{"parameterUnit":"m.s-1","parameterCategory":2,"la1":30.2991,"la2":30.254,"lo1":-89.0895,"lo2":-89.0444,"dy":0.0017,"dx":0.0017,"nx":28,"ny":28,"refTime":"2024-08-29T03:00:00:Z","depth":"4","parameterNumber":3,"parameterNumberName":"V-component_of_CURRENTS"},"data":[0,0,0,0,0,0,0,0,0,0,0,0,0,0,0,0,0,0,0,0,0,0,0,0,0,0,0,0,0,0,0,0,0,0,0,0,0,0,0,0,0,0,0,0,0,0,0,0,0,0,0,0,0,0,0,0,0,0,0.0103,0.0103,0,0.007,0.0069,0.0069,0.0043,0.0043,0.0042,0.0042,-0.0015,-0.0017,-0.0018,0,0,0,0,0,0,0,0,0,0,0,0,0,0.0113,0.0113,0.0103,0.0103,0.0103,0.007,0.0069,0.0069,0.0043,0.0043,0.0042,0.0042,-0.0015,-0.0017,-0.0018,0,0,0,0,0,0,0,0,0,0,0,0,0,0.0097,0.0113,0.0103,0.0086,0.0084,0.007,0.0069,0.0068,0.0043,0.0043,0.0042,0.0042,-0.0014,-0.0016,-0.0019,-0.0026,0,0,-0.0025,-0.0026,0,0,0,0,0,0,0,0,0.0098,0.0096,0.0089,0.0087,0.0085,0.0061,0.0051,0.0036,0.0043,0.0058,0.0042,0.0042,0.0008,0.0005,-0.0002,-0.0029,-0.0031,-0.0025,-0.0026,-0.0027,-0.0028,0,0,0,0,0,0,0,0.0099,0.0097,0.0089,0.0089,0.0087,0.0069,0.0067,0.0048,0.0034,0.0057,0.0055,0.0052,0.0007,0.0,-0.0004,-0.0032,-0.0025,-0.0027,-0.0028,-0.0029,-0.0067,-0.0067,0,0,0,0,0,0,0.0107,0.0099,0.009,0.0088,0.0092,0.007,0.0067,0.0068,0.0035,0.003,0.0053,0.0051,0.0004,-0.0001,-0.0006,-0.0005,-0.0027,-0.0029,-0.003,-0.0067,-0.0067,-0.0067,0,0,0,0,0,0,0.0107,0.0106,0.0092,0.0093,0.009,0.007,0.0072,0.0068,0.0064,0.0032,0.0026,0.0053,0.0003,-0.0003,-0.0015,-0.0008,-0.003,-0.0032,-0.0067,-0.0067,-0.0067,-0.0011,0,0,0,0,0,0,0.0107,0.0107,0.0113,0.0094,0.009,0.009,0.0072,0.0067,0.0063,0.0061,0.0031,0.0025,0.0003,-0.0012,-0.0017,-0.0011,-0.0033,-0.0068,-0.0067,-0.0067,-0.0014,-0.0009,-0.0006,0,0,0,0,0,0.0108,0.0119,0.0113,0.0112,0.0098,0.0091,0.0088,0.0071,0.0064,0.0066,0.0046,0.0026,-0.0014,-0.0013,-0.002,-0.0014,-0.0068,-0.0067,-0.0067,-0.0015,-0.001,-0.0006,0,0,0,0,0,0,0.0125,0.0116,0.011,0.0117,0.0108,0.0087,0.0089,0.0077,0.0063,0.0062,0.0031,0.0024,0.0014,-0.0008,-0.0007,-0.0025,-0.0045,-0.0046,-0.0004,0.0001,0.0005,0.0024,-0.0035,0,0,0,0,0,0.0132,0.0139,0.0125,0.0131,0.0129,0.011,0.0105,0.0096,0.008,0.0074,0.0052,0.0029,0.001,0.0001,-0.002,-0.0027,-0.0052,-0.0029,-0.0025,-0.0021,-0.001,-0.0043,-0.0041,-0.0065,-0.0065,-0.0065,0,0,0.014,0.0137,0.014,0.0135,0.0126,0.0132,0.0107,0.0106,0.011,0.007,0.0069,0.0042,0.0011,0.0003,-0.0004,-0.0013,-0.0028,-0.0021,-0.0017,-0.0008,-0.0042,-0.004,-0.0038,-0.0065,-0.0065,-0.0065,0,0,0.016,0.0157,0.0169,0.0167,0.0161,0.0151,0.0154,0.0137,0.0131,0.0126,0.0097,0.0078,0.0051,0.0031,0.0016,0.003,-0.0006,0.002,0.0057,0.0025,0.0027,0.0029,-0.0,-0.0002,0.0023,0.0023,0.0023,0,0.0169,0.0184,0.0171,0.0183,0.0188,0.0164,0.0179,0.017,0.0151,0.015,0.0134,0.0094,0.0065,0.0055,0.0059,0.004,0.0017,0.0043,0.0031,0.0032,0.0033,0.0003,0.0,0.0026,0.0025,0.0025,0.0025,0,0.0197,0.0211,0.0219,0.0229,0.0232,0.0241,0.0229,0.0228,0.0215,0.0204,0.0191,0.015,0.0129,0.0112,0.0091,0.0082,0.0062,0.004,0.0022,0.0039,0.0006,0.0002,0.003,0.0029,0.0028,0.0027,0,0,0.0213,0.0235,0.024,0.0257,0.026,0.0266,0.0275,0.0278,0.0291,0.0261,0.0269,0.0229,0.0206,0.0189,0.0153,0.0125,0.0103,0.0091,0.0088,0.0069,0.0035,0.0018,0.0011,0.0078,0.0077,0.0077,0.0011,0,0.024,0.0278,0.0281,0.0318,0.0336,0.0327,0.0344,0.0343,0.0332,0.0332,0.0287,0.028,0.0235,0.0228,0.0193,0.0127,0.0096,0.0123,0.0017,0.0014,0.0001,0.0008,0.0076,0.0008,0.0007,0.0006,0.0006,0,0.0266,0.0291,0.0335,0.0372,0.038,0.0402,0.0427,0.0437,0.0429,0.0422,0.04,0.0362,0.0323,0.028,0.0181,0.02,0.0128,0.0071,0.0066,0.0031,-0.001,-0.0014,-0.0001,-0.0001,-0.0,0.0,0.0001,0,0.0286,0.0327,0.0368,0.038,0.0417,0.0441,0.0461,0.0469,0.0488,0.048,0.0486,0.043,0.0404,0.0311,0.0193,0.0187,0.0076,0.005,-0.0035,-0.0038,-0.0026,-0.0027,-0.0021,-0.0021,-0.0021,-0.0021,-0.002,0,0.031,0.0342,0.0386,0.0411,0.0468,0.0481,0.0536,0.0543,0.0563,0.0593,0.0538,0.0535,0.041,0.0327,0.0216,0.0083,0.0091,-0.0023,-0.0054,-0.0002,0.0,-0.0029,-0.0029,-0.0023,-0.0023,-0.0022,-0.0022,0,0.0318,0.0348,0.0398,0.0455,0.048,0.052,0.059,0.0627,0.0639,0.0672,0.0674,0.0612,0.0508,0.0371,0.0216,0.0117,-0.0011,-0.0063,0.001,-0.0017,-0.0109,-0.0106,-0.0158,-0.0159,-0.016,-0.0161,-0.0161,0,0.0321,0.0351,0.0429,0.047,0.0501,0.0567,0.0621,0.0662,0.0702,0.0716,0.0732,0.0649,0.0588,0.0368,0.0213,0.0003,-0.0036,-0.0104,-0.0112,-0.0097,-0.0123,-0.0118,-0.0113,-0.0163,-0.0163,-0.0163,-0.0164,0,0.0327,0.0359,0.0405,0.0493,0.0561,0.0633,0.0708,0.0744,0.0792,0.08,0.0784,0.0672,0.0551,0.0373,0.0207,0.0052,-0.0058,-0.0115,-0.0114,-0.0123,-0.0104,-0.0127,-0.0122,-0.0167,-0.0167,-0.0166,-0.0166,0,0.0332,0.0361,0.0432,0.0511,0.0596,0.068,0.0719,0.0774,0.0817,0.0834,0.0824,0.0699,0.0628,0.0398,0.0246,0.0093,0.0045,-0.0012,-0.0017,-0.0016,0.0038,0.0083,0.0057,0,0,0,0,0,0.0332,0.0376,0.0445,0.054,0.0625,0.0682,0.0772,0.0806,0.0853,0.0851,0.0843,0.0733,0.0513,0.0419,0.0263,0.0205,0.0004,0.0014,-0.0068,-0.0185,-0.0182,-0.0146,0,0,0,0,0,0,0.0335,0.0398,0.0441,0.0556,0.0622,0.0724,0.0786,0.0818,0.0819,0.0836,0.0726,0.0681,0.0468,0.0604,0.0257,0.021,0.0132,-0.0084,-0.0088,-0.0188,-0.0184,-0.0181,-0.0143,0,0,0,0,0]}]]